Hovedside
METAR-TAF:

METAR-TAF

Lufthavner :

Båtsfjord, Norge

Båtsfjord lufthavn

breddegrad: 70-38N, lengdegrad: 029-44E, høyde over havet: 10 m

Gjeldene værobservasjon

Denne rapporten ble laget for 19 timer og 33 minutter siden, klokken 14:50 UTC
Vind 12 kt fra Øst-sørøst
Temperatur 5°C
Luftfuktighet 70%
Trykk 1003 hPa
Sikt 10 km eller mer
Spredte skyer i en høyde av 3000 ft

METAR: ENBS 241450Z 11012KT 9999 SCT030 05/00 Q1003

Tid: 12:23 (10:23 UTC)


TAF: fraværende

Værobservasjoner og værvarsel for over 4000 flyplasser (METAR- og TAF-rapporter).

Tilgjengelige stasjoner er representert av de røde og gule prikkene på kartet.

Hold musepekeren over prikken for å se navnet på stasjonen.

Klikk så for å se værobservasjoner og -varsler.

For å forandre kartet kan du klikke på den grønne knappen med svart kryss for å zoome inn, på den grønne knappen med strek for å zoome ut, eller på de grønne pilene for å se tilstøtende kart.


METAR-TAF: